Time,TemperatureF,DewpointF,PressureIn,WindDirection,WindDirectionDegrees,WindSpeedMPH,WindSpeedGustMPH,Humidity,HourlyPrecipIn,Conditions,Clouds,dailyrainin,SoftwareType,DateUTC
2013-02-16 00:29:00,47.9,22.9,30.17,South,172,0.0,2.0,37,0.00,,---,0.00,VWS V13.01,2013-02-16 08:29:00,
2013-02-16 01:29:00,49.8,-14.9,30.16,South,172,2.0,2.0,6,0.00,,---,0.00,VWS V13.01,2013-02-16 09:29:00,
2013-02-16 01:59:00,49.8,-18.5,30.16,South,172,0.0,2.0,5,0.00,,---,0.00,VWS V13.01,2013-02-16 09:59:00,
2013-02-16 02:29:00,48.5,5.7,30.15,South,172,0.0,1.0,17,0.00,,---,0.00,VWS V13.01,2013-02-16 10:29:00,
2013-02-16 02:59:00,47.0,1.8,30.13,South,172,0.0,1.0,15,0.00,,---,0.00,VWS V13.01,2013-02-16 10:59:00,
2013-02-16 03:29:00,46.1,8.4,30.12,South,172,0.0,2.0,21,0.00,,---,0.00,VWS V13.01,2013-02-16 11:29:00,
2013-02-16 03:59:00,46.1,-0.4,30.12,South,172,0.0,2.0,14,0.00,,---,0.00,VWS V13.01,2013-02-16 11:59:00,
2013-02-16 04:29:00,45.8,0.8,30.12,South,172,0.0,1.0,15,0.00,,---,0.00,VWS V13.01,2013-02-16 12:29:00,
2013-02-16 04:59:00,45.2,4.2,30.12,South,172,0.0,0.0,18,0.00,,---,0.00,VWS V13.01,2013-02-16 12:59:00,
2013-02-16 05:29:00,45.1,6.4,30.13,South,172,0.0,2.0,20,0.00,,---,0.00,VWS V13.01,2013-02-16 13:29:00,
2013-02-16 05:59:00,44.8,7.3,30.13,South,172,0.0,2.0,21,0.00,,---,0.00,VWS V13.01,2013-02-16 13:59:00,
2013-02-16 06:29:00,45.5,6.8,30.13,South,172,0.0,2.0,20,0.00,,---,0.00,VWS V13.01,2013-02-16 14:29:00,
2013-02-16 06:59:00,45.1,10.5,30.13,NE,54,0.0,3.0,24,0.00,,---,0.00,VWS V13.01,2013-02-16 14:59:00,
2013-02-16 07:29:00,45.4,10.7,30.14,NE,54,0.0,2.0,24,0.00,,---,0.00,VWS V13.01,2013-02-16 15:29:00,
2013-02-16 07:59:00,46.4,17.4,30.14,NE,54,0.0,2.0,31,0.00,,---,0.00,VWS V13.01,2013-02-16 15:59:00,
2013-02-16 08:29:00,49.1,23.3,30.15,NE,54,0.0,0.0,36,0.00,,---,0.00,VWS V13.01,2013-02-16 16:29:00,
2013-02-16 08:59:00,53.2,18.3,30.14,NE,54,0.0,1.0,25,0.00,,---,0.00,VWS V13.01,2013-02-16 16:59:00,
2013-02-16 10:29:00,63.4,0.0,30.13,NE,54,0.0,1.0,0,0.00,,---,0.00,VWS V13.01,2013-02-16 18:29:00,
2013-02-16 10:59:00,66.0,66.0,30.11,SSW,206,0.0,4.0,100,0.00,,---,0.00,VWS V13.01,2013-02-16 18:59:00,
2013-02-16 11:29:00,70.3,70.3,30.10,SSW,206,0.0,3.0,100,0.00,,---,0.00,VWS V13.01,2013-02-16 19:29:00,
2013-02-16 11:59:00,73.3,73.3,30.08,North,0,1.0,10.0,100,0.00,,---,0.00,VWS V13.01,2013-02-16 19:59:00,
2013-02-16 12:29:00,74.0,74.0,30.07,SE,127,0.0,8.0,100,0.00,,---,0.00,VWS V13.01,2013-02-16 20:29:00,
2013-02-16 12:59:00,74.2,74.2,30.05,SW,236,5.0,11.0,100,0.00,,---,0.00,VWS V13.01,2013-02-16 20:59:00,
2013-02-16 13:29:00,73.2,73.2,30.04,SW,234,2.0,10.0,100,0.00,,---,0.00,VWS V13.01,2013-02-16 21:29:00,
2013-02-16 13:59:00,74.9,74.9,30.03,WSW,241,5.0,10.0,100,0.00,,---,0.00,VWS V13.01,2013-02-16 21:59:00,
2013-02-16 14:29:00,70.9,70.9,30.03,South,186,2.0,9.0,100,0.00,,---,0.00,VWS V13.01,2013-02-16 22:29:00,
2013-02-16 14:59:00,70.1,70.1,30.03,SW,232,2.0,7.0,100,0.00,,---,0.00,VWS V13.01,2013-02-16 22:59:00,
2013-02-16 15:29:00,69.4,69.4,30.02,SW,233,5.0,7.0,100,0.00,,---,0.00,VWS V13.01,2013-02-16 23:29:00,
2013-02-16 15:59:00,67.6,67.6,30.02,SSW,202,0.0,7.0,100,0.00,,---,0.00,VWS V13.01,2013-02-16 23:59:00,
2013-02-16 16:29:00,70.4,70.4,30.01,SSW,202,0.0,2.0,100,0.00,,---,0.00,VWS V13.01,2013-02-17 00:29:00,
2013-02-16 16:59:00,70.8,70.8,30.00,SSW,202,3.0,6.0,100,0.00,,---,0.00,VWS V13.01,2013-02-17 00:59:00,
2013-02-16 17:29:00,66.4,66.4,30.01,SSW,202,0.0,3.0,100,0.00,,---,0.00,VWS V13.01,2013-02-17 01:29:00,
2013-02-16 17:59:00,61.6,0.0,30.03,SSW,202,0.0,2.0,0,0.00,,---,0.00,VWS V13.01,2013-02-17 01:59:00,
2013-02-16 18:29:00,57.0,-23.2,30.03,SSW,202,0.0,2.0,3,0.00,,---,0.00,VWS V13.01,2013-02-17 02:29:00,
2013-02-16 18:59:00,55.9,-10.4,30.03,SSW,202,1.0,2.0,6,0.00,,---,0.00,VWS V13.01,2013-02-17 02:59:00,
2013-02-16 19:29:00,54.5,-8.4,30.03,SSW,202,0.0,2.0,7,0.00,,---,0.00,VWS V13.01,2013-02-17 03:29:00,
2013-02-16 19:59:00,52.2,12.4,30.04,SSW,202,0.0,2.0,20,0.00,,---,0.00,VWS V13.01,2013-02-17 03:59:00,
2013-02-16 20:29:00,51.3,23.9,30.04,SSW,202,0.0,2.0,34,0.00,,---,0.00,VWS V13.01,2013-02-17 04:29:00,
2013-02-16 20:59:00,50.5,35.4,30.05,SSW,202,0.0,2.0,56,0.00,,---,0.00,VWS V13.01,2013-02-17 04:59:00,
2013-02-16 21:29:00,49.6,42.4,30.04,SSW,202,0.0,2.0,76,0.00,,---,0.00,VWS V13.01,2013-02-17 05:29:00,
2013-02-16 21:59:00,48.9,47.0,30.04,SSW,202,0.0,2.0,93,0.00,,---,0.00,VWS V13.01,2013-02-17 05:59:00,
2013-02-16 22:29:00,47.3,45.7,30.03,SSW,202,0.0,2.0,94,0.00,,---,0.00,VWS V13.01,2013-02-17 06:29:00,
2013-02-16 22:59:00,46.4,46.4,30.04,SSW,202,0.0,2.0,100,0.00,,---,0.00,VWS V13.01,2013-02-17 06:59:00,
2013-02-16 23:29:00,45.7,45.7,30.03,SSW,202,0.0,0.0,100,0.00,,---,0.00,VWS V13.01,2013-02-17 07:29:00,
2013-02-16 23:59:00,44.8,44.8,30.02,SSW,202,0.0,1.0,100,0.00,,---,0.00,VWS V13.01,2013-02-17 07:59:00,